| time (UTC) | temp C | wind direction | speed KPH | gust KPH | rain 1hr cm | rain 24hr cm | rain mn cm | humidity % | barometer mb |
| 20260504151021 | 18 | 360 | 4.8 | 22.5 | 0.00 | 0.00 | 0.00 | 44 | 1008.3 |
| 20260504150517 | 17 | 360 | 4.8 | 22.5 | 0.00 | 0.00 | 0.00 | 44 | 1008.4 |
| 20260504141020 | 15 | 360 | 3.2 | 20.9 | 0.00 | 0.00 | 0.00 | 54 | 1008.9 |
| 20260504140520 | 15 | 360 | 4.8 | 20.9 | 0.00 | 0.00 | 0.00 | 55 | 1009.0 |
| 20260504130521 | 10 | 360 | 1.6 | 8.0 | 0.00 | 0.00 | 0.00 | 64 | 1009.6 |
| 20260504110523 | 3 | 0 | 0.0 | 3.2 | 0.00 | 0.00 | 0.00 | 84 | 1010.7 |
| 20260504100520 | 2 | 0 | 0.0 | 0.0 | 0.00 | 0.00 | 0.00 | 89 | 1010.2 |
| 20260504081536 | 4 | 0 | 0.0 | 0.0 | 0.00 | 0.00 | 0.00 | 85 | 1010.1 |
| 20260504081024 | 4 | 0 | 0.0 | 0.0 | 0.00 | 0.00 | 0.00 | 85 | 1010.0 |
| 20260504080520 | 4 | 0 | 0.0 | 0.0 | 0.00 | 0.00 | 0.00 | 85 | 1010.1 |
| 20260504050519 | 3 | 0 | 0.0 | 0.0 | 0.00 | 0.00 | 0.00 | 84 | 1010.4 |
| 20260504045521 | 3 | 0 | 0.0 | 0.0 | 0.00 | 0.00 | 0.00 | 85 | 1010.5 |
| 20260504045021 | 3 | 0 | 0.0 | 0.0 | 0.00 | 0.00 | 0.00 | 85 | 1010.4 |
| 20260504044536 | 3 | 0 | 0.0 | 0.0 | 0.00 | 0.00 | 0.00 | 85 | 1010.4 |
| 20260504044022 | 3 | 0 | 0.0 | 0.0 | 0.00 | 0.00 | 0.00 | 86 | 1010.5 |
| 20260504043524 | 3 | 0 | 0.0 | 0.0 | 0.00 | 0.00 | 0.00 | 86 | 1010.6 |
| 20260504043035 | 3 | 0 | 0.0 | 0.0 | 0.00 | 0.00 | 0.00 | 86 | 1010.5 |
| 20260504042521 | 3 | 0 | 0.0 | 0.0 | 0.00 | 0.00 | 0.00 | 86 | 1010.4 |
| 20260504042021 | 3 | 0 | 0.0 | 0.0 | 0.00 | 0.00 | 0.00 | 86 | 1010.3 |
| 20260504041537 | 3 | 0 | 0.0 | 0.0 | 0.00 | 0.00 | 0.00 | 86 | 1010.3 |
| 20260504041020 | 3 | 0 | 0.0 | 0.0 | 0.00 | 0.00 | 0.00 | 86 | 1010.4 |
| 20260504040520 | 3 | 0 | 0.0 | 0.0 | 0.00 | 0.00 | 0.00 | 86 | 1010.3 |
| 20260504040041 | 3 | 0 | 0.0 | 0.0 | 0.00 | 0.00 | 0.00 | 85 | 1010.4 |
| 20260504035520 | 3 | 0 | 0.0 | 0.0 | 0.00 | 0.00 | 0.00 | 85 | 1010.3 |
| 20260504035023 | 3 | 0 | 0.0 | 0.0 | 0.00 | 0.00 | 0.00 | 86 | 1010.2 |
| 20260504034546 | 3 | 0 | 0.0 | 0.0 | 0.00 | 0.00 | 0.00 | 86 | 1010.2 |
| 20260504034025 | 3 | 0 | 0.0 | 0.0 | 0.00 | 0.00 | 0.00 | 85 | 1010.2 |
| 20260504033530 | 3 | 0 | 0.0 | 1.6 | 0.00 | 0.00 | 0.00 | 85 | 1010.1 |
| 20260504033041 | 3 | 0 | 0.0 | 3.2 | 0.00 | 0.00 | 0.00 | 84 | 1010.1 |
| 20260504032517 | 3 | 0 | 0.0 | 3.2 | 0.00 | 0.00 | 0.00 | 85 | 1010.0 |
| 20260504032018 | 3 | 360 | 0.0 | 3.2 | 0.00 | 0.00 | 0.00 | 86 | 1010.1 |
| 20260504031549 | 3 | 0 | 0.0 | 1.6 | 0.00 | 0.00 | 0.00 | 86 | 1009.9 |
| 20260504031017 | 3 | 0 | 0.0 | 1.6 | 0.00 | 0.00 | 0.00 | 84 | 1009.9 |
| 20260504030521 | 3 | 0 | 0.0 | 0.0 | 0.00 | 0.00 | 0.00 | 83 | 1009.9 |
| 20260504030040 | 3 | 0 | 0.0 | 1.6 | 0.00 | 0.00 | 0.00 | 84 | 1010.0 |
| 20260504025525 | 3 | 0 | 0.0 | 1.6 | 0.00 | 0.00 | 0.00 | 83 | 1009.9 |
| 20260504025021 | 3 | 0 | 0.0 | 1.6 | 0.00 | 0.00 | 0.00 | 82 | 1009.9 |
| 20260504024538 | 3 | 0 | 0.0 | 1.6 | 0.00 | 0.00 | 0.00 | 82 | 1009.9 |
| 20260504024024 | 3 | 0 | 0.0 | 1.6 | 0.00 | 0.00 | 0.00 | 82 | 1010.0 |
| 20260504023521 | 3 | 0 | 0.0 | 1.6 | 0.00 | 0.00 | 0.00 | 82 | 1010.0 |
| 20260504023040 | 3 | 0 | 0.0 | 1.6 | 0.00 | 0.00 | 0.00 | 81 | 1010.0 |
| 20260504022521 | 4 | 0 | 0.0 | 1.6 | 0.00 | 0.00 | 0.00 | 81 | 1010.0 |
| 20260504022017 | 4 | 0 | 0.0 | 1.6 | 0.00 | 0.00 | 0.00 | 80 | 1009.9 |
| 20260504021534 | 4 | 0 | 0.0 | 1.6 | 0.00 | 0.00 | 0.00 | 79 | 1009.8 |
| 20260504021020 | 4 | 360 | 0.0 | 1.6 | 0.00 | 0.00 | 0.00 | 78 | 1009.7 |
| 20260504020520 | 4 | 0 | 0.0 | 1.6 | 0.00 | 0.00 | 0.00 | 77 | 1009.7 |
| 20260504020040 | 5 | 0 | 0.0 | 1.6 | 0.00 | 0.00 | 0.00 | 75 | 1009.6 |
| 20260504015521 | 5 | 0 | 0.0 | 1.6 | 0.00 | 0.00 | 0.00 | 73 | 1009.6 |
| 20260504015018 | 5 | 0 | 0.0 | 1.6 | 0.00 | 0.00 | 0.00 | 74 | 1009.5 |
| 20260504014536 | 5 | 0 | 0.0 | 1.6 | 0.00 | 0.00 | 0.00 | 73 | 1009.5 |
| 20260504014020 | 5 | 0 | 0.0 | 1.6 | 0.00 | 0.00 | 0.00 | 72 | 1009.5 |
| 20260504013521 | 5 | 0 | 0.0 | 1.6 | 0.00 | 0.00 | 0.00 | 72 | 1009.5 |
| 20260504013032 | 5 | 0 | 0.0 | 1.6 | 0.00 | 0.00 | 0.00 | 71 | 1009.4 |
| 20260504012523 | 5 | 0 | 0.0 | 1.6 | 0.00 | 0.00 | 0.00 | 70 | 1009.4 |
| 20260504012021 | 6 | 0 | 0.0 | 1.6 | 0.00 | 0.00 | 0.00 | 68 | 1009.3 |
| 20260504011539 | 6 | 0 | 0.0 | 1.6 | 0.00 | 0.00 | 0.00 | 68 | 1009.3 |
| 20260504011021 | 6 | 0 | 0.0 | 0.0 | 0.00 | 0.00 | 0.00 | 65 | 1009.3 |
| 20260504010523 | 6 | 0 | 0.0 | 0.0 | 0.00 | 0.00 | 0.00 | 64 | 1009.2 |
| 20260504010041 | 6 | 0 | 0.0 | 1.6 | 0.00 | 0.00 | 0.00 | 64 | 1009.0 |
| 20260504005520 | 6 | 0 | 0.0 | 1.6 | 0.00 | 0.00 | 0.00 | 63 | 1009.0 |
| 20260504005020 | 7 | 0 | 0.0 | 1.6 | 0.00 | 0.00 | 0.00 | 55 | 1008.9 |
| 20260504004535 | 7 | 0 | 0.0 | 1.6 | 0.00 | 0.00 | 0.00 | 61 | 1008.8 |
| 20260504004019 | 7 | 0 | 0.0 | 1.6 | 0.00 | 0.00 | 0.00 | 60 | 1008.7 |
| 20260504003521 | 7 | 0 | 0.0 | 1.6 | 0.00 | 0.00 | 0.00 | 59 | 1008.7 |
| 20260504003043 | 8 | 0 | 0.0 | 1.6 | 0.00 | 0.00 | 0.00 | 56 | 1008.7 |
| 20260504002521 | 8 | 0 | 0.0 | 1.6 | 0.00 | 0.00 | 0.00 | 56 | 1008.6 |
| 20260504002022 | 8 | 0 | 0.0 | 1.6 | 0.00 | 0.00 | 0.00 | 55 | 1008.5 |
| 20260504001537 | 8 | 0 | 0.0 | 1.6 | 0.00 | 0.00 | 0.00 | 46 | 1008.4 |
| 20260504001021 | 9 | 0 | 0.0 | 1.6 | 0.00 | 0.00 | 0.00 | 54 | 1008.4 |
| 20260504000521 | 9 | 0 | 0.0 | 1.6 | 0.00 | 0.00 | 0.00 | 53 | 1008.3 |
| 20260504000035 | 10 | 0 | 0.0 | 1.6 | 0.00 | 0.00 | 0.00 | 53 | 1008.4 |
| 20260503235520 | 10 | 0 | 0.0 | 1.6 | 0.00 | 0.00 | 0.00 | 50 | 1008.3 |
| 20260503235021 | 10 | 0 | 0.0 | 3.2 | 0.00 | 0.00 | 0.00 | 47 | 1008.2 |
| 20260503234539 | 10 | 0 | 0.0 | 4.8 | 0.00 | 0.00 | 0.00 | 48 | 1008.2 |
| 20260503234021 | 10 | 0 | 0.0 | 4.8 | 0.00 | 0.00 | 0.00 | 47 | 1008.1 |
| 20260503233521 | 10 | 360 | 0.0 | 4.8 | 0.00 | 0.00 | 0.00 | 46 | 1008.2 |
| 20260503233038 | 10 | 360 | 0.0 | 4.8 | 0.00 | 0.00 | 0.00 | 47 | 1008.1 |
| 20260503232520 | 10 | 0 | 0.0 | 6.4 | 0.00 | 0.00 | 0.00 | 46 | 1008.1 |
| 20260503232020 | 10 | 360 | 1.6 | 6.4 | 0.00 | 0.00 | 0.00 | 45 | 1008.0 |
| 20260503231546 | 11 | 360 | 0.0 | 4.8 | 0.00 | 0.00 | 0.00 | 46 | 1008.0 |
| 20260503231018 | 11 | 360 | 0.0 | 6.4 | 0.00 | 0.00 | 0.00 | 44 | 1007.9 |
| 20260503230520 | 11 | 360 | 1.6 | 6.4 | 0.00 | 0.00 | 0.00 | 44 | 1008.0 |
| 20260503230033 | 11 | 0 | 0.0 | 6.4 | 0.00 | 0.00 | 0.00 | 44 | 1008.0 |
| 20260503225524 | 11 | 0 | 0.0 | 8.0 | 0.00 | 0.00 | 0.00 | 44 | 1007.9 |
| 20260503225025 | 11 | 360 | 1.6 | 8.0 | 0.00 | 0.00 | 0.00 | 44 | 1008.0 |
| 20260503224536 | 11 | 360 | 3.2 | 8.0 | 0.00 | 0.00 | 0.00 | 44 | 1008.0 |
| 20260503224021 | 11 | 0 | 1.6 | 9.7 | 0.00 | 0.00 | 0.00 | 45 | 1008.0 |
| 20260503223521 | 11 | 360 | 3.2 | 9.7 | 0.00 | 0.00 | 0.00 | 35 | 1008.0 |
| 20260503223039 | 11 | 360 | 1.6 | 12.9 | 0.00 | 0.00 | 0.00 | 43 | 1008.0 |
| 20260503222521 | 11 | 0 | 1.6 | 25.7 | 0.00 | 0.00 | 0.00 | 45 | 1008.0 |
| 20260503222020 | 11 | 360 | 3.2 | 25.7 | 0.00 | 0.00 | 0.00 | 45 | 1008.0 |
| 20260503221538 | 11 | 360 | 6.4 | 25.7 | 0.00 | 0.00 | 0.00 | 42 | 1008.0 |
| 20260503221022 | 11 | 360 | 3.2 | 17.7 | 0.00 | 0.00 | 0.00 | 43 | 1008.0 |
| 20260503220524 | 11 | 360 | 4.8 | 17.7 | 0.00 | 0.00 | 0.00 | 43 | 1007.9 |
| 20260503220040 | 11 | 360 | 3.2 | 20.9 | 0.00 | 0.00 | 0.00 | 43 | 1008.0 |
| 20260503215521 | 11 | 360 | 3.2 | 20.9 | 0.00 | 0.00 | 0.00 | 44 | 1007.9 |
| 20260503215021 | 11 | 360 | 6.4 | 20.9 | 0.00 | 0.00 | 0.00 | 43 | 1008.1 |
| 20260503214544 | 11 | 360 | 3.2 | 19.3 | 0.00 | 0.00 | 0.00 | 46 | 1008.0 |
| 20260503214024 | 11 | 360 | 4.8 | 19.3 | 0.00 | 0.00 | 0.00 | 45 | 1008.0 |
| 20260503213521 | 10 | 360 | 1.6 | 16.1 | 0.00 | 0.00 | 0.00 | 46 | 1008.0 |
| 20260503213052 | 10 | 360 | 4.8 | 16.1 | 0.00 | 0.00 | 0.00 | 45 | 1008.0 |
| 20260503212521 | 10 | 360 | 3.2 | 20.9 | 0.00 | 0.00 | 0.00 | 45 | 1007.9 |
| 20260503212020 | 10 | 360 | 6.4 | 20.9 | 0.00 | 0.00 | 0.00 | 45 | 1008.0 |
| 20260503211556 | 10 | 360 | 4.8 | 20.9 | 0.00 | 0.00 | 0.00 | 45 | 1007.9 |
| 20260503211026 | 10 | 360 | 8.0 | 25.7 | 0.00 | 0.00 | 0.00 | 45 | 1008.0 |
| 20260503210521 | 11 | 360 | 3.2 | 25.7 | 0.00 | 0.00 | 0.00 | 44 | 1007.9 |
| 20260503210036 | 11 | 360 | 9.7 | 25.7 | 0.00 | 0.00 | 0.00 | 44 | 1007.9 |
| 20260503205521 | 11 | 360 | 8.0 | 17.7 | 0.00 | 0.00 | 0.00 | 43 | 1007.8 |
| 20260503205024 | 11 | 360 | 4.8 | 22.5 | 0.00 | 0.00 | 0.00 | 34 | 1007.8 |
| 20260503204552 | 11 | 360 | 9.7 | 24.1 | 0.00 | 0.00 | 0.00 | 42 | 1007.8 |
| 20260503204020 | 11 | 360 | 8.0 | 24.1 | 0.00 | 0.00 | 0.00 | 42 | 1007.7 |
| 20260503203520 | 11 | 360 | 6.4 | 20.9 | 0.00 | 0.00 | 0.00 | 43 | 1007.7 |
| 20260503203037 | 12 | 360 | 8.0 | 19.3 | 0.00 | 0.00 | 0.00 | 42 | 1007.7 |
| 20260503202521 | 11 | 360 | 3.2 | 19.3 | 0.00 | 0.00 | 0.00 | 43 | 1007.6 |
| 20260503202021 | 11 | 360 | 4.8 | 19.3 | 0.00 | 0.00 | 0.00 | 43 | 1007.6 |
| 20260503201539 | 11 | 360 | 3.2 | 16.1 | 0.00 | 0.00 | 0.00 | 43 | 1007.8 |
| 20260503201020 | 11 | 0 | 4.8 | 19.3 | 0.00 | 0.00 | 0.00 | 44 | 1007.5 |
| 20260503200520 | 11 | 360 | 8.0 | 19.3 | 0.00 | 0.00 | 0.00 | 42 | 1007.6 |
| 20260503200037 | 11 | 360 | 4.8 | 22.5 | 0.00 | 0.00 | 0.00 | 43 | 1007.7 |
| 20260503195521 | 11 | 360 | 8.0 | 22.5 | 0.00 | 0.00 | 0.00 | 43 | 1007.8 |
| 20260503195020 | 11 | 360 | 4.8 | 20.9 | 0.00 | 0.00 | 0.00 | 43 | 1007.8 |
| 20260503194535 | 11 | 360 | 3.2 | 19.3 | 0.00 | 0.00 | 0.00 | 35 | 1007.7 |
| 20260503194020 | 11 | 360 | 4.8 | 20.9 | 0.00 | 0.00 | 0.00 | 44 | 1007.8 |
| 20260503193521 | 11 | 360 | 6.4 | 24.1 | 0.00 | 0.00 | 0.00 | 43 | 1007.8 |
| 20260503193034 | 11 | 360 | 8.0 | 24.1 | 0.00 | 0.00 | 0.00 | 43 | 1007.9 |
| 20260503192521 | 11 | 360 | 6.4 | 20.9 | 0.00 | 0.00 | 0.00 | 44 | 1007.9 |
| 20260503192020 | 11 | 360 | 6.4 | 17.7 | 0.00 | 0.00 | 0.00 | 43 | 1007.8 |
| 20260503191553 | 11 | 360 | 3.2 | 19.3 | 0.00 | 0.00 | 0.00 | 47 | 1007.8 |
| 20260503191022 | 10 | 360 | 6.4 | 19.3 | 0.00 | 0.00 | 0.00 | 36 | 1007.8 |
| 20260503190521 | 10 | 360 | 6.4 | 25.7 | 0.00 | 0.00 | 0.00 | 45 | 1007.9 |
| 20260503190037 | 10 | 360 | 9.7 | 25.7 | 0.00 | 0.00 | 0.00 | 44 | 1007.9 |
| 20260503185521 | 10 | 360 | 6.4 | 22.5 | 0.00 | 0.00 | 0.00 | 44 | 1007.9 |
| 20260503185020 | 10 | 360 | 4.8 | 25.7 | 0.00 | 0.00 | 0.00 | 44 | 1007.8 |
| 20260503184541 | 10 | 360 | 11.3 | 25.7 | 0.00 | 0.00 | 0.00 | 44 | 1007.8 |
| 20260503184021 | 11 | 360 | 9.7 | 25.7 | 0.00 | 0.00 | 0.00 | 44 | 1007.9 |
| 20260503183520 | 11 | 360 | 6.4 | 22.5 | 0.00 | 0.00 | 0.00 | 45 | 1007.9 |
| 20260503183042 | 11 | 360 | 8.0 | 22.5 | 0.00 | 0.00 | 0.00 | 46 | 1007.6 |
| 20260503182520 | 11 | 360 | 4.8 | 24.1 | 0.00 | 0.00 | 0.00 | 46 | 1007.7 |
| 20260503182021 | 11 | 360 | 6.4 | 25.7 | 0.00 | 0.00 | 0.00 | 45 | 1007.7 |
| 20260503181536 | 11 | 360 | 11.3 | 25.7 | 0.00 | 0.00 | 0.00 | 43 | 1007.8 |
| 20260503181021 | 11 | 360 | 6.4 | 19.3 | 0.00 | 0.00 | 0.00 | 45 | 1007.8 |
| 20260503180518 | 11 | 360 | 6.4 | 22.5 | 0.00 | 0.00 | 0.00 | 44 | 1007.6 |
| 20260503180037 | 11 | 360 | 8.0 | 25.7 | 0.00 | 0.00 | 0.00 | 35 | 1007.6 |
| 20260503175524 | 11 | 360 | 11.3 | 25.7 | 0.00 | 0.00 | 0.00 | 43 | 1007.8 |
| 20260503175020 | 11 | 360 | 4.8 | 20.9 | 0.00 | 0.00 | 0.00 | 44 | 1007.7 |
| 20260503174550 | 11 | 360 | 3.2 | 29.0 | 0.00 | 0.00 | 0.00 | 50 | 1008.0 |
| 20260503174021 | 10 | 360 | 9.7 | 29.0 | 0.00 | 0.00 | 0.00 | 46 | 1008.0 |
| 20260503173518 | 11 | 360 | 9.7 | 29.0 | 0.00 | 0.00 | 0.00 | 46 | 1007.9 |
| 20260503173035 | 11 | 360 | 8.0 | 27.4 | 0.00 | 0.00 | 0.00 | 46 | 1007.8 |
| 20260503172517 | 11 | 360 | 8.0 | 27.4 | 0.00 | 0.00 | 0.00 | 46 | 1007.7 |
| 20260503172020 | 11 | 360 | 8.0 | 29.0 | 0.00 | 0.00 | 0.00 | 46 | 1007.5 |
| 20260503171536 | 11 | 360 | 11.3 | 29.0 | 0.00 | 0.00 | 0.00 | 43 | 1007.5 |
| 20260503171020 | 11 | 360 | 11.3 | 27.4 | 0.00 | 0.00 | 0.00 | 44 | 1007.6 |
| 20260503170517 | 11 | 360 | 9.7 | 27.4 | 0.00 | 0.00 | 0.00 | 43 | 1007.4 |